Back to catalog

COSMOS 970 DEB

AliveLEO
NORAD 12864·DEBRIS·🇷🇺 Russia

Launched Dec 21, 1977 from Baikonur Cosmodrome

Loading…

Next Passes (next 24 hours)

TLE

FreshSource: Space-Track

Epoch: Sep 14, 2026, 07:07 UTC

1 12864U 77121AS  26257.29694380  .00000763  00000-0  60702-3 0  9996
2 12864  65.8327   4.5533 0100347 295.9449  93.5345 13.94642782330833

Track COSMOS 970 DEB in real time with AllMySat

Download on the App Store